Location: Colorado Springs
(38.8340°N, 104.8210°W)
Time: 09:31:48
(UTC-06:00)

Tiangong 1 - Pass Details

Date: 10 October 2017
Orbit: 293 x 320 km, 42.8° (Epoch: 21 October)

Event Time Altitude Azimuth Distance (km) Brightness Sun altitude
Rises 20:24:50 0° 290° (WNW) 2,034 6.1 -23.6°
Reaches altitude 10° 20:26:53 10° 297° (WNW) 1,198 4.5 -24.0°
Enters shadow 20:27:39 17° 304° (NW) 898 3.7 -24.1°
